contact:dominique.lefevre@mio.osupytheas.fr, maurice.libes@osupytheas.fr, didier.mallarino@osupytheas.fr
Project:EMSO http://www.emso-fr.org/EMSO-France
Depth: 2436.0 m
Title:EMSO Ligure Ouest : Data MII capteur AQUADOPP
Date,Latitude,Longitude,X_East,Y_North,Z_Up,Amplitude_X,Amplitude_Y,Amplitude_Z,Batterie,SoundSpeed,Heading,Pitch,Roll,Pressure,TIS,Speed,Direction
, degrees North, degrees East, m.s-1, m.s-1,m.s-1, 1, 1, 1, Volt, m.s-1, degree, degree, degree, dbar, degree_C, m.s-1, degree
2020-12-03T00:04:03,42.805,6.029,-0.007,0.021,-0.043,101.0,132.0,99.0,13.3,1505.2,323.0,-0.7,1.8,2470.472,13.3,0.022,341.6
2020-12-03T00:07:03,42.805,6.029,-0.016,0.033,-0.02,101.0,133.0,99.0,13.4,1505.3,323.5,-0.7,1.8,2470.47,13.31,0.036,334.1
2020-12-03T00:10:03,42.805,6.029,-0.016,0.023,-0.015,101.0,130.0,99.0,13.4,1505.3,326.5,-0.7,1.8,2470.446,13.31,0.028,325.2
2020-12-03T00:13:03,42.805,6.029,0.013,0.024,0.012,101.0,130.0,100.0,13.4,1505.3,325.0,-0.7,1.8,2470.501,13.32,0.027,28.4
2020-12-03T00:16:03,42.805,6.029,0.011,0.007,-0.027,101.0,132.0,99.0,13.4,1505.3,324.5,-0.7,1.8,2470.461,13.32,0.013,57.5
2020-12-03T00:19:03,42.805,6.029,-0.041,0.022,0.003,101.0,128.0,99.0,13.4,1505.3,324.8,-0.7,1.8,2470.441,13.32,0.046,298.2
2020-12-03T00:22:03,42.805,6.029,0.001,0.016,0.001,102.0,128.0,101.0,13.3,1505.3,326.1,-0.7,1.8,2470.446,13.32,0.016,3.6
2020-12-03T00:25:03,42.805,6.029,-0.032,0.023,-0.008,101.0,129.0,99.0,13.4,1505.3,326.9,-0.7,1.9,2470.465,13.32,0.039,305.7
2020-12-03T00:28:03,42.805,6.029,-0.02,0.039,-0.019,101.0,132.0,99.0,13.3,1505.3,323.6,-0.7,1.8,2470.479,13.32,0.043,332.9
2020-12-03T00:31:03,42.805,6.029,-0.003,0.053,0.012,101.0,132.0,99.0,13.4,1505.3,327.2,-0.7,1.8,2470.464,13.32,0.053,356.8
2020-12-03T00:34:03,42.805,6.029,-0.009,0.028,-0.007,101.0,131.0,100.0,13.4,1505.3,326.2,-0.7,1.8,2470.463,13.32,0.029,342.2
2020-12-03T00:37:03,42.805,6.029,-0.026,0.018,0.001,101.0,129.0,100.0,13.4,1505.3,325.7,-0.7,1.8,2470.434,13.32,0.031,304.7
2020-12-03T00:40:03,42.805,6.029,0.009,0.01,-0.012,102.0,131.0,100.0,13.4,1505.3,327.1,-0.7,1.8,2470.443,13.32,0.013,42.0
2020-12-03T00:43:03,42.805,6.029,-0.012,0.026,-0.001,102.0,130.0,99.0,13.4,1505.3,324.1,-0.7,1.9,2470.429,13.32,0.028,335.2
2020-12-03T00:46:03,42.805,6.029,-0.03,0.028,-0.028,99.0,128.0,101.0,13.3,1505.3,324.2,-0.7,1.8,2470.43,13.32,0.041,313.0
2020-12-03T00:49:03,42.805,6.029,-0.009,0.015,0.0,103.0,130.0,98.0,13.4,1505.3,327.9,-0.7,1.8,2470.42,13.32,0.017,329.0
2020-12-03T00:52:03,42.805,6.029,-0.029,0.014,-0.002,102.0,125.0,98.0,13.3,1505.3,322.8,-0.7,1.8,2470.422,13.32,0.032,295.8
2020-12-03T00:55:03,42.805,6.029,0.0,0.038,0.004,102.0,129.0,99.0,13.4,1505.3,326.7,-0.7,1.8,2470.455,13.32,0.038,0.0
2020-12-03T00:58:03,42.805,6.029,-0.031,0.016,-0.011,100.0,131.0,101.0,13.4,1505.3,328.0,-0.7,1.8,2470.442,13.32,0.034,297.3
2020-12-03T01:04:03,42.805,6.029,-0.005,0.015,-0.024,101.0,129.0,100.0,13.3,1505.2,328.1,-0.8,1.8,2470.466,13.3,0.015,341.6
2020-12-03T01:07:03,42.805,6.029,0.004,0.005,-0.023,101.0,129.0,99.0,13.3,1505.3,326.0,-0.8,1.8,2470.495,13.31,0.006,38.7
2020-12-03T01:10:03,42.805,6.029,-0.012,0.002,-0.027,101.0,132.0,99.0,13.4,1505.3,326.3,-0.7,1.8,2470.453,13.31,0.012,279.5
2020-12-03T01:13:03,42.805,6.029,-0.039,0.006,-0.042,101.0,132.0,98.0,13.4,1505.3,323.3,-0.7,1.8,2470.453,13.32,0.039,278.7
2020-12-03T01:16:03,42.805,6.029,-0.008,0.027,-0.027,101.0,131.0,100.0,13.4,1505.3,324.7,-0.7,1.8,2470.45,13.32,0.028,343.5
2020-12-03T01:19:03,42.805,6.029,-0.007,0.029,-0.022,102.0,131.0,99.0,13.4,1505.3,328.1,-0.7,1.8,2470.418,13.32,0.029,346.4
2020-12-03T01:22:03,42.805,6.029,-0.024,0.036,0.004,101.0,128.0,99.0,13.4,1505.3,324.7,-0.7,1.8,2470.411,13.32,0.043,326.3
2020-12-03T01:25:03,42.805,6.029,-0.017,0.031,-0.008,100.0,128.0,99.0,13.3,1505.3,324.5,-0.7,1.8,2470.416,13.32,0.035,331.3
2020-12-03T01:28:03,42.805,6.029,-0.041,0.026,-0.045,101.0,131.0,100.0,13.4,1505.3,327.7,-0.7,1.8,2470.426,13.32,0.048,302.4
2020-12-03T01:31:03,42.805,6.029,-0.011,0.048,0.007,101.0,130.0,99.0,13.3,1505.3,324.4,-0.7,1.8,2470.447,13.32,0.049,347.1
2020-12-03T01:34:03,42.805,6.029,-0.017,0.025,-0.046,102.0,127.0,99.0,13.4,1505.3,322.9,-0.7,1.8,2470.414,13.32,0.03,325.8
2020-12-03T01:37:03,42.805,6.029,-0.011,0.024,-0.015,101.0,128.0,99.0,13.3,1505.3,323.1,-0.7,1.9,2470.404,13.32,0.026,335.4
2020-12-03T01:40:03,42.805,6.029,0.0,0.017,-0.03,101.0,130.0,99.0,13.4,1505.3,326.0,-0.7,1.9,2470.427,13.32,0.017,0.0
2020-12-03T01:43:03,42.805,6.029,-0.057,0.021,-0.025,101.0,126.0,99.0,13.4,1505.3,327.1,-0.7,1.8,2470.392,13.32,0.06,290.2
2020-12-03T01:46:03,42.805,6.029,-0.008,0.024,-0.005,101.0,125.0,100.0,13.4,1505.3,323.1,-0.7,1.8,2470.402,13.32,0.025,341.6
2020-12-03T01:49:03,42.805,6.029,-0.017,0.037,-0.015,102.0,128.0,99.0,13.3,1505.3,324.5,-0.7,1.8,2470.39,13.32,0.04,335.3
2020-12-03T01:52:03,42.805,6.029,-0.038,0.025,-0.017,100.0,132.0,99.0,13.4,1505.3,325.7,-0.7,1.9,2470.415,13.32,0.045,303.3
2020-12-03T01:55:03,42.805,6.029,0.005,0.024,0.013,101.0,128.0,100.0,13.4,1505.3,325.9,-0.7,1.8,2470.389,13.32,0.024,11.8
2020-12-03T01:58:03,42.805,6.029,-0.014,0.012,-0.026,101.0,129.0,99.0,13.3,1505.3,325.0,-0.7,1.8,2470.442,13.32,0.018,310.6
2020-12-03T02:04:03,42.805,6.029,-0.008,0.026,0.005,101.0,132.0,99.0,13.4,1505.2,327.2,-0.8,1.9,2470.43,13.3,0.027,342.9
2020-12-03T02:07:03,42.805,6.029,0.018,0.035,0.014,101.0,125.0,99.0,13.4,1505.3,327.3,-0.7,1.8,2470.42,13.31,0.039,27.2
2020-12-03T02:10:03,42.805,6.029,-0.02,0.023,-0.004,101.0,129.0,99.0,13.4,1505.3,325.3,-0.7,1.9,2470.463,13.31,0.03,319.0
2020-12-03T02:13:03,42.805,6.029,-0.035,0.038,-0.022,99.0,132.0,100.0,13.4,1505.3,324.6,-0.7,1.8,2470.437,13.32,0.051,317.4
2020-12-03T02:16:03,42.805,6.029,-0.021,0.009,0.0,102.0,130.0,99.0,13.4,1505.3,326.8,-0.7,1.8,2470.411,13.32,0.022,293.2
2020-12-03T02:19:03,42.805,6.029,0.019,0.019,0.001,101.0,128.0,99.0,13.3,1505.3,325.1,-0.7,1.8,2470.398,13.32,0.026,45.0
2020-12-03T02:22:03,42.805,6.029,-0.012,0.023,0.0,101.0,133.0,98.0,13.4,1505.3,327.2,-0.7,1.8,2470.429,13.32,0.025,332.4
2020-12-03T02:25:03,42.805,6.029,-0.026,0.028,-0.021,100.0,127.0,100.0,13.4,1505.3,324.0,-0.7,1.8,2470.41,13.32,0.038,317.1
2020-12-03T02:28:03,42.805,6.029,-0.003,0.022,0.0,101.0,126.0,100.0,13.4,1505.3,323.3,-0.7,1.8,2470.415,13.32,0.022,352.2
2020-12-03T02:31:03,42.805,6.029,-0.01,0.022,0.019,102.0,129.0,99.0,13.4,1505.3,322.7,-0.7,1.8,2470.414,13.32,0.024,335.6
2020-12-03T02:34:03,42.805,6.029,-0.015,0.017,-0.055,101.0,126.0,99.0,13.4,1505.3,326.2,-0.7,1.8,2470.375,13.32,0.022,318.6
2020-12-03T02:37:03,42.805,6.029,-0.043,0.028,-0.031,100.0,123.0,101.0,13.4,1505.3,326.3,-0.7,1.8,2470.42,13.32,0.051,303.1
2020-12-03T02:40:03,42.805,6.029,-0.015,0.044,0.005,101.0,130.0,99.0,13.4,1505.3,323.8,-0.7,1.8,2470.389,13.32,0.046,341.2
2020-12-03T02:43:03,42.805,6.029,-0.024,0.03,-0.006,101.0,128.0,99.0,13.4,1505.3,326.5,-0.7,1.8,2470.37,13.32,0.038,321.3
2020-12-03T02:46:03,42.805,6.029,-0.017,0.014,-0.017,100.0,127.0,100.0,13.4,1505.3,324.1,-0.7,1.8,2470.389,13.32,0.022,309.5
2020-12-03T02:49:03,42.805,6.029,0.001,0.029,0.0,101.0,125.0,99.0,13.4,1505.3,327.6,-0.7,1.8,2470.448,13.32,0.029,2.0
2020-12-03T02:52:03,42.805,6.029,0.004,0.027,0.002,101.0,123.0,100.0,13.3,1505.3,327.6,-0.7,1.8,2470.372,13.32,0.027,8.4
2020-12-03T02:55:03,42.805,6.029,-0.011,0.034,0.0,101.0,124.0,100.0,13.4,1505.3,322.6,-0.7,1.8,2470.427,13.32,0.035,342.1
2020-12-03T02:58:03,42.805,6.029,-0.025,0.022,-0.001,101.0,126.0,101.0,13.4,1505.3,324.1,-0.7,1.9,2470.384,13.32,0.033,311.3
2020-12-03T03:04:03,42.805,6.029,0.022,0.016,-0.015,100.0,125.0,101.0,13.3,1505.2,325.0,-0.7,1.8,2470.464,13.3,0.027,54.0
2020-12-03T03:07:03,42.805,6.029,-0.02,0.018,-0.03,101.0,124.0,99.0,13.4,1505.3,325.9,-0.7,1.8,2470.386,13.31,0.026,312.0
2020-12-03T03:10:03,42.805,6.029,-0.003,0.029,0.036,102.0,128.0,99.0,13.3,1505.3,326.3,-0.7,1.8,2470.433,13.31,0.029,354.1
2020-12-03T03:13:03,42.805,6.029,-0.023,0.042,-0.003,102.0,126.0,99.0,13.3,1505.3,325.6,-0.7,1.8,2470.421,13.32,0.047,331.3
2020-12-03T03:16:03,42.805,6.029,0.0,0.014,0.033,100.0,125.0,99.0,13.4,1505.3,323.1,-0.7,1.8,2470.393,13.32,0.014,0.0
2020-12-03T03:19:03,42.805,6.029,-0.011,0.034,-0.001,100.0,131.0,100.0,13.3,1505.3,327.7,-0.7,1.8,2470.409,13.32,0.035,342.1
2020-12-03T03:22:03,42.805,6.029,-0.01,0.006,-0.048,101.0,127.0,99.0,13.4,1505.3,327.9,-0.7,1.8,2470.392,13.32,0.011,301.0
2020-12-03T03:25:03,42.805,6.029,0.007,-0.003,0.003,101.0,129.0,99.0,13.4,1505.3,327.5,-0.7,1.8,2470.362,13.32,0.007,113.2
2020-12-03T03:28:03,42.805,6.029,0.038,0.008,-0.025,102.0,126.0,100.0,13.4,1505.3,326.7,-0.7,1.9,2470.363,13.32,0.038,78.1
2020-12-03T03:31:03,42.805,6.029,-0.022,0.02,-0.016,101.0,128.0,99.0,13.4,1505.3,322.8,-0.7,1.8,2470.446,13.32,0.029,312.3
2020-12-03T03:34:03,42.805,6.029,-0.034,0.025,-0.022,101.0,124.0,99.0,13.4,1505.3,322.7,-0.7,1.8,2470.392,13.32,0.042,306.3
2020-12-03T03:37:03,42.805,6.029,-0.003,0.021,0.012,101.0,124.0,99.0,13.4,1505.3,325.5,-0.7,1.8,2470.42,13.32,0.021,351.9
2020-12-03T03:40:03,42.805,6.029,0.009,0.039,0.02,101.0,124.0,99.0,13.3,1505.3,326.5,-0.7,1.8,2470.386,13.32,0.04,13.0
2020-12-03T03:43:03,42.805,6.029,-0.022,0.011,-0.027,101.0,122.0,99.0,13.4,1505.3,325.3,-0.7,1.9,2470.39,13.32,0.024,296.6
2020-12-03T03:46:03,42.805,6.029,-0.011,0.012,-0.011,102.0,123.0,99.0,13.3,1505.3,324.4,-0.7,1.8,2470.361,13.32,0.016,317.5
2020-12-03T03:49:03,42.805,6.029,-0.03,0.024,-0.038,101.0,126.0,100.0,13.4,1505.3,325.5,-0.7,1.8,2470.397,13.32,0.038,308.7
2020-12-03T03:52:03,42.805,6.029,-0.032,0.032,-0.011,101.0,125.0,99.0,13.3,1505.3,325.2,-0.7,1.8,2470.419,13.32,0.045,315.0
2020-12-03T03:55:03,42.805,6.029,-0.022,-0.012,-0.041,100.0,126.0,100.0,13.4,1505.3,325.5,-0.7,1.9,2470.441,13.32,0.025,241.4
2020-12-03T03:58:03,42.805,6.029,0.007,0.03,0.026,99.0,122.0,101.0,13.4,1505.3,322.6,-0.7,1.8,2470.425,13.32,0.03,13.1
2020-12-03T04:04:03,42.805,6.029,0.009,0.022,-0.011,102.0,127.0,99.0,13.4,1505.2,322.7,-0.8,1.8,2470.441,13.3,0.023,22.2
2020-12-03T04:07:03,42.805,6.029,-0.006,0.006,-0.008,101.0,126.0,100.0,13.4,1505.3,328.0,-0.7,1.8,2470.405,13.31,0.008,315.0
2020-12-03T04:10:03,42.805,6.029,-0.01,0.018,-0.011,101.0,127.0,99.0,13.3,1505.3,328.1,-0.7,1.8,2470.428,13.31,0.02,330.9
2020-12-03T04:13:03,42.805,6.029,0.014,0.021,0.023,102.0,126.0,99.0,13.3,1505.3,326.4,-0.7,1.8,2470.416,13.32,0.025,33.7
2020-12-03T04:16:03,42.805,6.029,-0.018,0.005,-0.025,103.0,128.0,99.0,13.4,1505.3,323.5,-0.7,1.8,2470.426,13.32,0.018,285.5
2020-12-03T04:19:03,42.805,6.029,0.003,0.005,0.021,101.0,125.0,100.0,13.4,1505.3,326.7,-0.7,1.8,2470.41,13.32,0.005,31.0
2020-12-03T04:22:03,42.805,6.029,-0.013,0.04,-0.007,100.0,128.0,99.0,13.4,1505.3,325.6,-0.7,1.8,2470.422,13.32,0.042,342.0
2020-12-03T04:25:03,42.805,6.029,-0.028,0.024,-0.027,101.0,128.0,99.0,13.4,1505.3,326.7,-0.7,1.8,2470.433,13.32,0.036,310.6
2020-12-03T04:28:03,42.805,6.029,-0.034,0.037,-0.011,101.0,128.0,99.0,13.4,1505.3,324.5,-0.7,1.8,2470.432,13.32,0.05,317.4
2020-12-03T04:31:03,42.805,6.029,-0.019,0.011,-0.023,101.0,128.0,99.0,13.4,1505.3,327.6,-0.7,1.8,2470.423,13.32,0.021,300.1
2020-12-03T04:34:03,42.805,6.029,-0.007,0.025,-0.003,102.0,126.0,98.0,13.3,1505.3,326.2,-0.7,1.9,2470.426,13.32,0.025,344.4
2020-12-03T04:37:03,42.805,6.029,-0.035,0.038,-0.012,100.0,124.0,100.0,13.4,1505.3,325.8,-0.7,1.8,2470.375,13.32,0.051,317.4
2020-12-03T04:40:03,42.805,6.029,-0.03,0.019,-0.016,100.0,128.0,100.0,13.3,1505.3,325.4,-0.7,1.8,2470.427,13.32,0.035,302.3
2020-12-03T04:43:03,42.805,6.029,-0.021,0.008,0.001,100.0,126.0,100.0,13.4,1505.3,326.8,-0.7,1.8,2470.453,13.32,0.022,290.9
2020-12-03T04:46:03,42.805,6.029,-0.021,0.034,-0.037,100.0,127.0,100.0,13.4,1505.3,324.2,-0.7,1.8,2470.462,13.32,0.039,328.3
2020-12-03T04:49:03,42.805,6.029,-0.011,0.021,0.007,100.0,129.0,99.0,13.4,1505.3,323.4,-0.7,1.8,2470.447,13.32,0.023,332.4
2020-12-03T04:52:03,42.805,6.029,-0.009,0.022,0.015,101.0,125.0,99.0,13.3,1505.3,326.8,-0.7,1.8,2470.45,13.32,0.023,337.8
2020-12-03T04:55:03,42.805,6.029,-0.019,0.019,0.01,101.0,123.0,99.0,13.4,1505.3,325.6,-0.7,1.9,2470.407,13.32,0.026,315.0
2020-12-03T04:58:03,42.805,6.029,-0.019,0.018,-0.013,102.0,125.0,99.0,13.3,1505.3,325.7,-0.7,1.8,2470.438,13.32,0.026,313.5
2020-12-03T05:04:03,42.805,6.029,0.001,0.018,-0.001,102.0,127.0,100.0,13.4,1505.2,325.9,-0.8,1.8,2470.454,13.3,0.018,3.2
2020-12-03T05:07:03,42.805,6.029,-0.03,0.032,-0.013,100.0,126.0,100.0,13.4,1505.3,324.5,-0.7,1.8,2470.505,13.31,0.043,316.9
2020-12-03T05:10:03,42.805,6.029,-0.003,0.031,-0.022,101.0,129.0,99.0,13.3,1505.3,324.4,-0.7,1.8,2470.472,13.31,0.031,354.5
2020-12-03T05:13:03,42.805,6.029,-0.054,0.033,-0.03,101.0,126.0,100.0,13.4,1505.3,326.0,-0.7,1.8,2470.494,13.32,0.063,301.4
2020-12-03T05:16:03,42.805,6.029,0.005,0.018,-0.009,102.0,126.0,99.0,13.4,1505.3,324.6,-0.7,1.8,2470.494,13.32,0.018,15.5
2020-12-03T05:19:03,42.805,6.029,-0.016,-0.009,-0.025,99.0,126.0,100.0,13.3,1505.3,324.9,-0.7,1.8,2470.483,13.32,0.018,240.6
2020-12-03T05:22:03,42.805,6.029,-0.007,0.029,0.013,100.0,124.0,101.0,13.3,1505.3,327.8,-0.7,1.8,2470.484,13.32,0.029,346.4
2020-12-03T05:25:03,42.805,6.029,-0.041,0.014,0.011,101.0,123.0,100.0,13.4,1505.3,324.5,-0.7,1.8,2470.461,13.32,0.043,288.9
2020-12-03T05:28:03,42.805,6.029,-0.021,0.019,-0.044,102.0,129.0,100.0,13.4,1505.3,323.3,-0.7,1.8,2470.51,13.32,0.028,312.1
2020-12-03T05:31:03,42.805,6.029,-0.015,0.016,0.003,101.0,125.0,101.0,13.4,1505.3,323.1,-0.7,1.8,2470.487,13.32,0.021,316.9
2020-12-03T05:34:03,42.805,6.029,-0.007,0.022,-0.002,101.0,126.0,100.0,13.3,1505.3,324.2,-0.7,1.8,2470.493,13.32,0.023,342.4
2020-12-03T05:37:03,42.805,6.029,-0.02,0.02,-0.004,102.0,124.0,100.0,13.3,1505.3,323.8,-0.7,1.8,2470.486,13.32,0.028,315.0
2020-12-03T05:40:03,42.805,6.029,-0.028,0.037,0.015,101.0,125.0,100.0,13.4,1505.3,323.7,-0.7,1.8,2470.499,13.32,0.046,322.9
2020-12-03T05:43:03,42.805,6.029,-0.038,0.022,-0.026,101.0,124.0,100.0,13.3,1505.3,328.4,-0.7,1.8,2470.501,13.32,0.043,300.1
2020-12-03T05:46:03,42.805,6.029,-0.007,0.026,0.001,101.0,123.0,100.0,13.4,1505.3,324.7,-0.7,1.8,2470.472,13.32,0.026,344.9
2020-12-03T05:49:03,42.805,6.029,-0.036,0.041,0.004,102.0,125.0,100.0,13.3,1505.3,324.1,-0.7,1.9,2470.446,13.32,0.054,318.7
2020-12-03T05:52:03,42.805,6.029,-0.01,0.013,0.037,101.0,121.0,100.0,13.3,1505.3,326.3,-0.7,1.8,2470.475,13.32,0.016,322.4
2020-12-03T05:55:03,42.805,6.029,-0.008,0.017,0.001,102.0,125.0,100.0,13.4,1505.3,323.8,-0.7,1.8,2470.492,13.32,0.018,334.8
2020-12-03T05:58:03,42.805,6.029,-0.04,0.013,-0.008,101.0,124.0,100.0,13.4,1505.3,323.3,-0.7,1.8,2470.498,13.32,0.042,288.0
2020-12-03T06:04:03,42.805,6.029,0.001,0.033,0.005,102.0,125.0,100.0,13.3,1505.3,323.2,-0.8,1.8,2470.54,13.31,0.033,1.7
2020-12-03T06:07:03,42.805,6.029,-0.009,0.031,0.036,101.0,122.0,100.0,13.4,1505.3,326.0,-0.7,1.9,2470.529,13.31,0.032,343.8
2020-12-03T06:10:03,42.805,6.029,-0.028,0.013,-0.032,101.0,128.0,100.0,13.4,1505.3,324.6,-0.7,1.8,2470.549,13.32,0.03,294.9
2020-12-03T06:13:03,42.805,6.029,-0.031,0.032,0.017,103.0,122.0,100.0,13.3,1505.3,328.2,-0.7,1.8,2470.516,13.32,0.044,315.9
2020-12-03T06:16:03,42.805,6.029,-0.001,0.039,0.026,102.0,127.0,100.0,13.4,1505.3,325.9,-0.7,1.8,2470.523,13.32,0.039,358.5
2020-12-03T06:19:03,42.805,6.029,-0.013,0.015,-0.014,102.0,122.0,101.0,13.3,1505.3,327.4,-0.7,1.8,2470.526,13.32,0.019,319.1
2020-12-03T06:22:03,42.805,6.029,-0.019,0.035,0.027,101.0,126.0,100.0,13.4,1505.3,324.2,-0.7,1.8,2470.539,13.32,0.039,331.5
2020-12-03T06:25:03,42.805,6.029,-0.035,0.008,-0.071,103.0,123.0,99.0,13.4,1505.3,325.6,-0.8,1.8,2470.526,13.32,0.035,282.9
2020-12-03T06:28:03,42.805,6.029,-0.005,0.043,-0.003,102.0,126.0,100.0,13.3,1505.3,324.4,-0.7,1.8,2470.555,13.32,0.043,353.4
2020-12-03T06:31:03,42.805,6.029,0.004,0.038,-0.019,102.0,125.0,100.0,13.4,1505.3,325.3,-0.7,1.8,2470.542,13.32,0.038,6.0
2020-12-03T06:34:03,42.805,6.029,-0.025,0.02,-0.033,103.0,123.0,100.0,13.4,1505.3,324.9,-0.7,1.8,2470.539,13.32,0.032,308.7
2020-12-03T06:37:03,42.805,6.029,-0.01,0.027,0.004,103.0,122.0,99.0,13.4,1505.3,325.6,-0.7,1.8,2470.515,13.32,0.028,339.7
2020-12-03T06:40:03,42.805,6.029,-0.029,0.017,-0.031,101.0,125.0,99.0,13.4,1505.3,327.0,-0.7,1.8,2470.567,13.32,0.033,300.4
2020-12-03T06:43:03,42.805,6.029,-0.02,0.047,0.018,101.0,126.0,100.0,13.3,1505.3,322.5,-0.7,1.8,2470.533,13.33,0.051,337.0
2020-12-03T06:46:03,42.805,6.029,-0.024,0.043,-0.007,101.0,126.0,100.0,13.3,1505.3,324.0,-0.7,1.8,2470.585,13.33,0.049,330.8
2020-12-03T06:49:03,42.805,6.029,0.007,0.038,-0.003,101.0,123.0,101.0,13.4,1505.3,325.0,-0.7,1.8,2470.529,13.33,0.038,10.4
2020-12-03T06:52:03,42.805,6.029,-0.024,0.028,-0.022,101.0,124.0,100.0,13.4,1505.3,324.3,-0.7,1.8,2470.552,13.33,0.036,319.4
2020-12-03T06:55:03,42.805,6.029,-0.016,0.034,-0.013,103.0,122.0,99.0,13.4,1505.3,326.6,-0.7,1.8,2470.523,13.33,0.037,334.8
2020-12-03T06:58:03,42.805,6.029,-0.004,0.021,-0.007,103.0,123.0,100.0,13.4,1505.3,324.7,-0.7,1.8,2470.553,13.33,0.021,349.2
2020-12-03T07:04:03,42.805,6.029,-0.007,0.017,-0.029,103.0,122.0,101.0,13.4,1505.3,324.8,-0.8,1.8,2470.569,13.31,0.018,337.6
2020-12-03T07:07:03,42.805,6.029,-0.007,0.017,-0.024,102.0,122.0,100.0,13.4,1505.3,327.9,-0.7,1.8,2470.572,13.31,0.018,337.6
2020-12-03T07:10:03,42.805,6.029,-0.002,0.041,0.008,104.0,118.0,99.0,13.4,1505.3,323.3,-0.7,1.8,2470.602,13.32,0.041,357.2
2020-12-03T07:13:03,42.805,6.029,-0.003,0.012,-0.018,102.0,122.0,100.0,13.4,1505.3,325.1,-0.7,1.8,2470.584,13.32,0.012,346.0
2020-12-03T07:16:03,42.805,6.029,0.011,0.017,-0.025,102.0,123.0,100.0,13.4,1505.3,328.4,-0.7,1.8,2470.567,13.32,0.02,32.9
2020-12-03T07:19:03,42.805,6.029,-0.027,0.022,0.015,101.0,124.0,100.0,13.4,1505.3,325.2,-0.7,1.9,2470.565,13.33,0.034,309.2
2020-12-03T07:22:03,42.805,6.029,-0.009,0.043,0.015,102.0,123.0,100.0,13.4,1505.3,323.5,-0.7,1.8,2470.559,13.33,0.043,348.2
2020-12-03T07:25:03,42.805,6.029,0.012,0.002,-0.011,101.0,122.0,100.0,13.4,1505.3,326.4,-0.7,1.8,2470.598,13.33,0.012,80.5
2020-12-03T07:28:03,42.805,6.029,-0.02,0.029,-0.017,102.0,124.0,99.0,13.4,1505.3,325.7,-0.7,1.8,2470.533,13.33,0.035,325.4
2020-12-03T07:31:03,42.805,6.029,-0.006,0.053,0.0,102.0,122.0,99.0,13.4,1505.3,324.6,-0.7,1.8,2470.578,13.33,0.053,353.5
2020-12-03T07:34:03,42.805,6.029,-0.007,0.032,0.0,101.0,124.0,100.0,13.4,1505.3,328.5,-0.7,1.8,2470.61,13.33,0.032,347.7
2020-12-03T07:37:03,42.805,6.029,-0.017,0.034,-0.023,102.0,122.0,99.0,13.4,1505.3,323.2,-0.7,1.8,2470.591,13.33,0.038,333.4
2020-12-03T07:40:03,42.805,6.029,-0.002,0.043,0.005,101.0,122.0,101.0,13.4,1505.3,325.1,-0.7,1.8,2470.589,13.33,0.043,357.3
2020-12-03T07:43:03,42.805,6.029,-0.038,0.038,-0.037,102.0,122.0,100.0,13.4,1505.3,325.2,-0.6,1.8,2470.584,13.33,0.053,315.0
2020-12-03T07:46:03,42.805,6.029,-0.023,0.055,-0.016,102.0,126.0,99.0,13.3,1505.3,326.3,-0.7,1.8,2470.585,13.33,0.059,337.3
2020-12-03T07:49:03,42.805,6.029,-0.006,0.039,-0.016,102.0,123.0,99.0,13.3,1505.3,327.8,-0.7,1.8,2470.599,13.33,0.039,351.3
2020-12-03T07:52:03,42.805,6.029,-0.007,0.039,0.004,103.0,123.0,99.0,13.4,1505.3,328.3,-0.7,1.8,2470.614,13.33,0.039,349.8
2020-12-03T07:55:03,42.805,6.029,-0.009,0.023,-0.037,100.0,120.0,100.0,13.3,1505.3,327.7,-0.7,1.8,2470.606,13.33,0.024,338.6
2020-12-03T07:58:03,42.805,6.029,-0.014,0.032,-0.05,101.0,123.0,100.0,13.4,1505.3,328.0,-0.7,1.8,2470.629,13.33,0.034,336.4
2020-12-03T08:04:03,42.805,6.029,-0.012,0.031,-0.008,102.0,121.0,99.0,13.4,1505.3,324.2,-0.7,1.8,2470.637,13.31,0.033,338.8
2020-12-03T08:07:03,42.805,6.029,0.0,0.032,0.0,100.0,121.0,100.0,13.3,1505.3,322.6,-0.7,1.8,2470.612,13.31,0.032,0.0
2020-12-03T08:10:03,42.805,6.029,-0.041,0.057,-0.043,101.0,120.0,100.0,13.3,1505.3,327.6,-0.7,1.8,2470.634,13.32,0.07,324.3
2020-12-03T08:13:03,42.805,6.029,-0.002,0.042,0.003,102.0,117.0,100.0,13.4,1505.3,325.3,-0.7,1.9,2470.659,13.32,0.042,357.3
2020-12-03T08:16:03,42.805,6.029,-0.024,0.035,-0.003,102.0,122.0,100.0,13.4,1505.3,325.9,-0.7,1.8,2470.644,13.32,0.042,325.6
2020-12-03T08:19:03,42.805,6.029,-0.039,0.031,-0.029,102.0,123.0,100.0,13.4,1505.3,326.1,-0.7,1.9,2470.642,13.32,0.049,308.5
2020-12-03T08:22:03,42.805,6.029,-0.011,0.034,-0.041,103.0,117.0,99.0,13.3,1505.3,324.8,-0.7,1.8,2470.634,13.33,0.035,342.1
2020-12-03T08:25:03,42.805,6.029,0.002,0.016,-0.014,103.0,122.0,99.0,13.4,1505.3,327.8,-0.7,1.8,2470.594,13.33,0.016,7.1
2020-12-03T08:28:03,42.805,6.029,-0.011,0.042,0.002,102.0,121.0,100.0,13.4,1505.3,327.2,-0.7,1.8,2470.59,13.33,0.043,345.3
2020-12-03T08:31:03,42.805,6.029,0.011,0.036,-0.022,102.0,121.0,99.0,13.3,1505.3,324.2,-0.7,1.8,2470.605,13.33,0.037,17.0
2020-12-03T08:34:03,42.805,6.029,-0.017,0.032,-0.009,103.0,118.0,99.0,13.4,1505.3,324.8,-0.7,1.8,2470.593,13.33,0.036,332.0
2020-12-03T08:37:03,42.805,6.029,-0.013,0.025,-0.006,101.0,124.0,100.0,13.4,1505.3,326.7,-0.7,1.8,2470.659,13.33,0.028,332.5
2020-12-03T08:40:03,42.805,6.029,-0.006,0.038,0.009,102.0,122.0,100.0,13.3,1505.3,326.0,-0.7,1.8,2470.634,13.33,0.038,351.0
2020-12-03T08:43:03,42.805,6.029,-0.037,0.058,-0.015,101.0,124.0,98.0,13.4,1505.3,327.0,-0.7,1.8,2470.651,13.33,0.068,327.5
2020-12-03T08:46:03,42.805,6.029,-0.035,0.039,-0.027,102.0,118.0,100.0,13.4,1505.3,325.2,-0.7,1.8,2470.585,13.33,0.052,318.1
2020-12-03T08:49:03,42.805,6.029,-0.017,0.016,-0.027,102.0,118.0,100.0,13.4,1505.3,325.3,-0.7,1.8,2470.634,13.33,0.023,313.3
2020-12-03T08:52:03,42.805,6.029,-0.038,0.035,-0.025,101.0,123.0,100.0,13.4,1505.3,324.4,-0.7,1.9,2470.617,13.33,0.051,312.6
2020-12-03T08:55:03,42.805,6.029,0.0,0.03,0.007,103.0,114.0,100.0,13.4,1505.3,325.3,-0.7,1.8,2470.639,13.33,0.03,0.0
2020-12-03T08:58:03,42.805,6.029,-0.034,0.05,-0.018,101.0,118.0,99.0,13.4,1505.3,327.0,-0.7,1.9,2470.626,13.33,0.06,325.8
2020-12-03T09:04:03,42.805,6.029,-0.03,0.039,-0.014,102.0,120.0,100.0,13.4,1505.3,327.1,-0.7,1.8,2470.649,13.31,0.049,322.4
2020-12-03T09:07:03,42.805,6.029,-0.001,0.049,-0.023,102.0,121.0,100.0,13.3,1505.3,327.5,-0.7,1.8,2470.639,13.31,0.049,358.8
2020-12-03T09:10:03,42.805,6.029,-0.005,0.025,-0.035,103.0,120.0,100.0,13.3,1505.3,324.5,-0.7,1.8,2470.645,13.32,0.025,348.7
2020-12-03T09:13:03,42.805,6.029,-0.035,0.029,0.035,103.0,118.0,99.0,13.4,1505.3,324.4,-0.7,1.8,2470.639,13.32,0.045,309.6
2020-12-03T09:16:03,42.805,6.029,-0.02,0.054,0.003,102.0,117.0,100.0,13.4,1505.3,324.6,-0.7,1.8,2470.657,13.32,0.057,339.7
2020-12-03T09:19:03,42.805,6.029,-0.012,0.029,-0.007,101.0,119.0,100.0,13.4,1505.3,327.1,-0.7,1.8,2470.642,13.32,0.031,337.5
2020-12-03T09:22:03,42.805,6.029,-0.028,0.037,-0.037,102.0,119.0,98.0,13.3,1505.3,326.7,-0.7,1.8,2470.633,13.32,0.046,322.9
2020-12-03T09:25:03,42.805,6.029,-0.042,0.024,-0.035,102.0,117.0,99.0,13.3,1505.3,325.1,-0.7,1.9,2470.66,13.32,0.048,299.7
2020-12-03T09:28:03,42.805,6.029,-0.019,0.042,-0.016,102.0,119.0,100.0,13.4,1505.3,324.2,-0.7,1.8,2470.656,13.32,0.046,335.7
2020-12-03T09:31:03,42.805,6.029,-0.019,0.027,-0.017,103.0,117.0,100.0,13.4,1505.3,326.9,-0.7,1.8,2470.595,13.32,0.033,324.9
2020-12-03T09:34:03,42.805,6.029,0.005,0.04,0.009,102.0,120.0,100.0,13.4,1505.3,325.6,-0.7,1.8,2470.605,13.32,0.04,7.1
2020-12-03T09:37:03,42.805,6.029,-0.021,0.043,-0.007,102.0,121.0,101.0,13.3,1505.3,326.4,-0.7,1.8,2470.619,13.32,0.047,334.0
2020-12-03T09:40:03,42.805,6.029,-0.012,0.015,-0.008,101.0,117.0,100.0,13.3,1505.3,327.6,-0.7,1.8,2470.63,13.33,0.019,321.3
2020-12-03T09:43:03,42.805,6.029,-0.034,0.029,-0.044,104.0,123.0,99.0,13.4,1505.3,328.2,-0.7,1.8,2470.595,13.32,0.044,310.5
2020-12-03T09:46:03,42.805,6.029,-0.002,0.052,-0.033,104.0,116.0,99.0,13.4,1505.3,328.0,-0.7,1.8,2470.571,13.32,0.052,357.8
2020-12-03T09:49:03,42.805,6.029,-0.046,0.036,0.008,102.0,119.0,99.0,13.4,1505.3,324.8,-0.7,1.8,2470.62,13.32,0.058,308.0
2020-12-03T09:52:03,42.805,6.029,-0.008,0.048,-0.008,103.0,114.0,100.0,13.4,1505.3,325.5,-0.7,1.8,2470.603,13.32,0.048,350.5
2020-12-03T09:55:03,42.805,6.029,-0.005,0.04,0.016,102.0,115.0,101.0,13.4,1505.3,322.8,-0.7,1.8,2470.586,13.32,0.04,352.9
2020-12-03T09:58:03,42.805,6.029,-0.005,0.029,-0.005,102.0,121.0,101.0,13.4,1505.3,324.3,-0.7,1.8,2470.567,13.32,0.029,350.2